When you browse on this site, cookies collect data to enhance your experience and personalize the content and advertising you see.
Visit our Privacy Policy to learn more. By continuing to use the site, you agree to this use of cookies and data.
  • în România
  • Lista ţărilor
  • Pe 7 zile
  • Temperatura apei
  • Hartă satelitară
  • Meteo pe hartă
  • Widget-uri
  • user-avatar
    Intrare

    Meteo pe oră la Isfahan

    Astăzi, 22 Iulie, Luni

    Timp Temperatura Precipitaţii Vânt Presiune Umiditate
    00:00 +30°C° 0 mm 5 m/s 633 mmHg 15%
    01:00 +30°C° 0 mm 5 m/s 633 mmHg 17%
    02:00 +30°C° 0 mm 6 m/s 633 mmHg 19%
    03:00 +30°C° 0 mm 7 m/s 633 mmHg 21%
    04:00 +30°C° 0 mm 5 m/s 633 mmHg 21%
    05:00 +30°C° 0 mm 4 m/s 634 mmHg 21%
    06:00 +29°C° 0 mm 3 m/s 634 mmHg 22%
    07:00 +31°C° 0 mm 3 m/s 634 mmHg 19%
    08:00 +34°C° 0 mm 4 m/s 634 mmHg 17%
    09:00 +36°C° 0 mm 5 m/s 634 mmHg 15%
    10:00 +37°C° 0 mm 5 m/s 634 mmHg 14%
    11:00 +39°C° 0 mm 5 m/s 634 mmHg 13%
    12:00 +39°C° 0 mm 5 m/s 634 mmHg 11%
    13:00 +40°C° 0 mm 5 m/s 634 mmHg 11%
    14:00 +40°C° 0 mm 5 m/s 633 mmHg 10%
    15:00 +40°C° 0 mm 5 m/s 633 mmHg 10%
    16:00 +40°C° 0 mm 5 m/s 633 mmHg 10%
    17:00 +39°C° 0 mm 5 m/s 633 mmHg 10%
    18:00 +38°C° 0 mm 6 m/s 632 mmHg 9%
    19:00 +36°C° 0 mm 5 m/s 632 mmHg 10%
    20:00 +34°C° 0 mm 4 m/s 632 mmHg 12%
    21:00 +32°C° 0 mm 4 m/s 632 mmHg 13%
    22:00 +30°C° 0 mm 3 m/s 631 mmHg 14%
    23:00 +29°C° 0 mm 2 m/s 631 mmHg 15%

    Mâine, 23 Iulie, Marţi

    Timp Temperatura Precipitaţii Vânt Presiune Umiditate
    00:00 +28°C° 0 mm 1 m/s 631 mmHg 16%
    01:00 +27°C° 0 mm 1 m/s 630 mmHg 16%
    02:00 +27°C° 0 mm 1 m/s 630 mmHg 17%
    03:00 +26°C° 0 mm 1 m/s 630 mmHg 17%
    04:00 +27°C° 0 mm 1 m/s 630 mmHg 17%
    05:00 +28°C° 0 mm 1 m/s 631 mmHg 16%
    06:00 +29°C° 0 mm 1 m/s 632 mmHg 15%
    07:00 +31°C° 0 mm 1 m/s 632 mmHg 14%
    08:00 +33°C° 0 mm 1 m/s 632 mmHg 12%
    09:00 +34°C° 0 mm 1 m/s 633 mmHg 11%
    10:00 +35°C° 0 mm 1 m/s 633 mmHg 10%
    11:00 +38°C° 0 mm 2 m/s 633 mmHg 9%
    12:00 +39°C° 0 mm 2 m/s 633 mmHg 9%
    13:00 +39°C° 0 mm 2 m/s 633 mmHg 9%
    14:00 +39°C° 0 mm 2 m/s 632 mmHg 8%
    15:00 +40°C° 0 mm 3 m/s 632 mmHg 8%
    16:00 +39°C° 0 mm 3 m/s 632 mmHg 9%
    17:00 +38°C° 0 mm 3 m/s 632 mmHg 10%
    18:00 +38°C° 0 mm 4 m/s 632 mmHg 10%
    19:00 +36°C° 0 mm 4 m/s 632 mmHg 11%
    20:00 +34°C° 0 mm 5 m/s 632 mmHg 11%
    21:00 +32°C° 0 mm 5 m/s 631 mmHg 12%
    22:00 +30°C° 0 mm 4 m/s 631 mmHg 11%
    23:00 +29°C° 0 mm 3 m/s 631 mmHg 10%

    Poimâine, 24 Iulie, Miercuri

    Timp Temperatura Precipitaţii Vânt Presiune Umiditate
    00:00 +27°C° 0 mm 2 m/s 630 mmHg 9%
    01:00 +27°C° 0 mm 1 m/s 630 mmHg 9%
    02:00 +26°C° 0 mm 1 m/s 630 mmHg 9%
    03:00 +24°C° 0 mm 0 m/s 630 mmHg 9%
    04:00 +24°C° 0 mm 0 m/s 630 mmHg 9%
    05:00 +25°C° 0 mm 0 m/s 631 mmHg 9%
    06:00 +26°C° 0 mm 0 m/s 631 mmHg 8%
    07:00 +30°C° 0 mm 1 m/s 632 mmHg 7%
    08:00 +32°C° 0 mm 1 m/s 632 mmHg 6%
    09:00 +34°C° 0 mm 1 m/s 633 mmHg 5%
    10:00 +35°C° 0 mm 1 m/s 633 mmHg 5%
    11:00 +37°C° 0 mm 1 m/s 633 mmHg 6%
    12:00 +39°C° 0 mm 2 m/s 633 mmHg 6%
    13:00 +39°C° 0 mm 2 m/s 632 mmHg 6%
    14:00 +40°C° 0 mm 2 m/s 632 mmHg 6%
    15:00 +40°C° 0 mm 2 m/s 632 mmHg 6%
    16:00 +39°C° 0 mm 2 m/s 632 mmHg 7%
    17:00 +37°C° 0 mm 1 m/s 632 mmHg 7%
    18:00 +36°C° 0 mm 1 m/s 631 mmHg 7%
    19:00 +36°C° 0 mm 2 m/s 631 mmHg 8%
    20:00 +34°C° 0 mm 3 m/s 632 mmHg 9%
    21:00 +32°C° 0 mm 4 m/s 632 mmHg 10%
    22:00 +30°C° 0 mm 3 m/s 631 mmHg 10%
    23:00 +29°C° 0 mm 2 m/s 631 mmHg 11%

    25 Iulie, Joi

    Timp Temperatura Precipitaţii Vânt Presiune Umiditate
    00:00 +27°C° 0 mm 1 m/s 630 mmHg 12%
    01:00 +27°C° 0 mm 1 m/s 630 mmHg 12%
    02:00 +26°C° 0 mm 1 m/s 630 mmHg 13%
    03:00 +25°C° 0 mm 1 m/s 629 mmHg 13%
    04:00 +26°C° 0 mm 1 m/s 630 mmHg 12%
    05:00 +27°C° 0 mm 1 m/s 631 mmHg 12%
    06:00 +28°C° 0 mm 1 m/s 631 mmHg 11%
    07:00 +31°C° 0 mm 1 m/s 632 mmHg 10%
    08:00 +33°C° 0 mm 1 m/s 633 mmHg 8%
    09:00 +35°C° 0 mm 1 m/s 633 mmHg 7%
    10:00 +36°C° 0 mm 1 m/s 633 mmHg 7%
    11:00 +37°C° 0 mm 1 m/s 633 mmHg 6%
    12:00 +40°C° 0 mm 2 m/s 633 mmHg 6%
    13:00 +40°C° 0 mm 2 m/s 632 mmHg 6%
    14:00 +41°C° 0 mm 2 m/s 632 mmHg 6%
    15:00 +41°C° 0 mm 2 m/s 632 mmHg 6%
    16:00 +40°C° 0 mm 2 m/s 632 mmHg 7%
    17:00 +39°C° 0 mm 2 m/s 632 mmHg 7%
    18:00 +38°C° 0 mm 2 m/s 631 mmHg 7%
    19:00 +37°C° 0 mm 3 m/s 631 mmHg 9%
    20:00 +35°C° 0 mm 4 m/s 631 mmHg 10%
    21:00 +33°C° 0 mm 5 m/s 631 mmHg 11%
    22:00 +32°C° 0 mm 4 m/s 631 mmHg 12%
    23:00 +29°C° 0 mm 2 m/s 630 mmHg 13%

    26 Iulie, Vineri

    Timp Temperatura Precipitaţii Vânt Presiune Umiditate
    00:00 +28°C° 0 mm 1 m/s 629 mmHg 14%
    01:00 +27°C° 0 mm 1 m/s 629 mmHg 15%
    02:00 +27°C° 0 mm 1 m/s 629 mmHg 16%
    03:00 +26°C° 0 mm 1 m/s 629 mmHg 17%
    04:00 +27°C° 0 mm 1 m/s 629 mmHg 16%
    05:00 +28°C° 0 mm 1 m/s 630 mmHg 15%
    06:00 +27°C° 0 mm 0 m/s 631 mmHg 14%
    07:00 +31°C° 0 mm 1 m/s 631 mmHg 13%
    08:00 +33°C° 0 mm 1 m/s 632 mmHg 11%
    09:00 +35°C° 0 mm 1 m/s 632 mmHg 10%
    10:00 +38°C° 0 mm 2 m/s 632 mmHg 9%
    11:00 +39°C° 0 mm 2 m/s 632 mmHg 8%
    12:00 +40°C° 0 mm 3 m/s 632 mmHg 8%
    13:00 +40°C° 0 mm 3 m/s 631 mmHg 8%
    14:00 +41°C° 0 mm 2 m/s 631 mmHg 7%
    15:00 +41°C° 0 mm 2 m/s 631 mmHg 7%
    16:00 +40°C° 0 mm 2 m/s 630 mmHg 7%
    17:00 +40°C° 0 mm 3 m/s 630 mmHg 8%
    18:00 +40°C° 0 mm 4 m/s 630 mmHg 8%
    19:00 +37°C° 0 mm 4 m/s 630 mmHg 9%
    20:00 +35°C° 0 mm 5 m/s 630 mmHg 10%
    21:00 +33°C° 0 mm 5 m/s 629 mmHg 12%
    22:00 +32°C° 0 mm 4 m/s 629 mmHg 13%
    23:00 +30°C° 0 mm 3 m/s 628 mmHg 14%

    27 Iulie, Sâmbătă

    Timp Temperatura Precipitaţii Vânt Presiune Umiditate
    00:00 +29°C° 0 mm 2 m/s 628 mmHg 15%
    01:00 +28°C° 0 mm 2 m/s 627 mmHg 16%
    02:00 +27°C° 0 mm 2 m/s 627 mmHg 17%
    03:00 +27°C° 0 mm 2 m/s 627 mmHg 18%
    04:00 +27°C° 0 mm 2 m/s 627 mmHg 17%
    05:00 +28°C° 0 mm 2 m/s 628 mmHg 16%
    06:00 +28°C° 0 mm 1 m/s 628 mmHg 16%
    07:00 +31°C° 0 mm 2 m/s 628 mmHg 14%
    08:00 +34°C° 0 mm 2 m/s 629 mmHg 12%
    09:00 +36°C° 0 mm 2 m/s 629 mmHg 10%
    10:00 +38°C° 0 mm 2 m/s 629 mmHg 9%
    11:00 +39°C° 0 mm 2 m/s 629 mmHg 8%
    12:00 +41°C° 0 mm 2 m/s 630 mmHg 7%
    13:00 +41°C° 0 mm 2 m/s 629 mmHg 7%
    14:00 +42°C° 0 mm 2 m/s 629 mmHg 7%
    15:00 +42°C° 0 mm 2 m/s 628 mmHg 7%
    16:00 +41°C° 0 mm 2 m/s 628 mmHg 7%
    17:00 +42°C° 0 mm 3 m/s 628 mmHg 8%
    18:00 +40°C° 0 mm 3 m/s 628 mmHg 8%
    19:00 +38°C° 0 mm 3 m/s 628 mmHg 9%
    20:00 +37°C° 0 mm 3 m/s 628 mmHg 10%
    21:00 +35°C° 0 mm 3 m/s 628 mmHg 11%
    22:00 +34°C° 0 mm 3 m/s 627 mmHg 12%
    23:00 +33°C° 0 mm 3 m/s 627 mmHg 12%
    Arată mai mult